Location: Rounton
(54.4000°N, 1.3500°W)
Time: 12:40:33
(UTC+01:00)

Vanguard 1 - Pass Details

Date: 25 February 2024
Orbit: 653 x 3825 km, 34.2° (Epoch: 22 April)

Event Time Altitude Azimuth Distance (km) Brightness Sun altitude
Rises 19:22:20 0° 214° (SW) 5,411 14.2 -16.6°
Reaches altitude 10° 19:26:00 10° 204° (SSW) 4,826 13.8 -17.2°
Maximum altitude 19:38:02 30° 150° (SSE) 4,465 13.0 -18.9°
Enters shadow 19:46:45 23° 117° (ESE) 5,493 13.2 -20.1°
